Home > Weather > Leesburg > Past weeks

Flag for USA Past Weather in Leesburg, Virginia, USA — Yesterday and Last 2 Weeks

Now
81 °F

Passing clouds.


Feels Like: 85 °F
Forecast: 72 / 97 °F
Wind: 3 mph from West

Location: Leesburg / Godfrey

Current Time: Jul 24, 2016 at 1:06:00 AM

Latest Report: Jul 24, 2016 at 12:35 AM


Visibility: 10 mi

Pressure: 29.97 "Hg

Humidity: 79%

Dew Point: 73 °F

Location of LeesburgLocation

Past Weather in Leesburg — Graph

°F

Leesburg Temperature Yesterday

Maximum temperature yesterday: 97 °F (at 2:55 PM)
Minimum temperature yesterday: 77 °F (at 2:55 AM)
Average temperature yesterday: 87 °F

High & Low Weather Summary for the Past Weeks

 TemperatureHumidityPressure
High97 °F (Jul 14, 3:15 PM)100% (Jul 8, 11:55 PM)30.25 "Hg (Jul 8, 11:55 PM)
Low61 °F (Jul 21, 5:55 AM)33% (Jul 11, 5:15 PM)29.81 "Hg (Jul 8, 11:15 PM)
Average80 °F72%30.04 "Hg
* Reported Jul 8 11:15 PM — Jul 23 11:55 PM, Leesburg, Weather by CustomWeather, © 2016

Note: Actual official high and low records may vary slightly from our data, if they occured in-between our weather recording intervals... More about our weather records

Advertising

Leesburg Weather History for the Previous 24 Hours

Scroll right to see more
 ConditionsComfort  
Time TempWeatherWind HumidityBarometerVisibility
11:55 PM
Sat, Jul 23
81 °FPassing clouds.No wind79%29.95 "Hg10 mi
11:35 PM82 °FPassing clouds.3 mph74%29.95 "Hg10 mi
11:15 PM82 °FClear.3 mph74%29.95 "Hg10 mi
10:55 PM82 °FClear.3 mph79%29.94 "Hg10 mi
10:35 PM82 °FClear.3 mph84%29.95 "Hg10 mi
10:15 PM84 °FClear.6 mph79%29.95 "Hg10 mi
9:55 PM86 °FClear.5 mph75%29.93 "Hg10 mi
9:35 PM86 °FClear.No wind75%29.93 "Hg10 mi
9:15 PM86 °FScattered clouds.3 mph75%29.92 "Hg10 mi
8:55 PM88 °FScattered clouds.No wind70%29.91 "Hg10 mi
8:35 PM88 °FScattered clouds.No wind70%29.91 "Hg10 mi
8:15 PM91 °FCloudy.No wind63%29.91 "Hg10 mi
7:55 PM91 °FPartly sunny.6 mph59%29.92 "Hg10 mi
7:35 PM91 °FPartly sunny.6 mph59%29.91 "Hg10 mi
7:15 PM93 °FOvercast.No wind53%29.90 "Hg10 mi
6:55 PM95 °FScattered clouds.3 mph50%29.89 "Hg10 mi
6:35 PM93 °FSunny.3 mph53%29.88 "Hg10 mi
6:15 PM95 °FScattered clouds.6 mph47%29.88 "Hg10 mi
5:55 PM97 °FScattered clouds.7 mph44%29.89 "Hg10 mi
5:35 PM97 °FScattered clouds.9 mph47%29.89 "Hg10 mi
5:15 PM97 °FSunny.7 mph47%29.89 "Hg10 mi
4:55 PM97 °FSunny.9 mph47%29.90 "Hg10 mi
4:35 PM97 °FSunny.8 mph47%29.90 "Hg10 mi
4:15 PM97 °FScattered clouds.9 mph47%29.91 "Hg10 mi
3:55 PM97 °FScattered clouds.7 mph47%29.92 "Hg10 mi
3:35 PM95 °FScattered clouds.7 mph50%29.92 "Hg10 mi
3:15 PM97 °FScattered clouds.10 mph50%29.93 "Hg10 mi
2:55 PM97 °FScattered clouds.9 mph50%29.92 "Hg10 mi
2:35 PM95 °FSunny.7 mph56%29.93 "Hg10 mi
2:15 PM95 °FSunny.7 mph53%29.94 "Hg10 mi
1:55 PM95 °FSunny.13 mph53%29.95 "Hg10 mi
1:35 PM95 °FSunny.5 mph53%29.96 "Hg10 mi
1:15 PM93 °FScattered clouds.8 mph56%29.96 "Hg10 mi
12:55 PM93 °FScattered clouds.3 mph59%29.97 "Hg10 mi
12:35 PM93 °FSunny.7 mph59%29.97 "Hg10 mi
12:15 PM91 °FSunny.9 mph63%29.98 "Hg10 mi
11:55 AM91 °FSunny.10 mph63%29.98 "Hg10 mi
11:35 AM91 °FSunny.9 mph63%29.98 "Hg10 mi
11:15 AM90 °FSunny.8 mph63%29.98 "Hg10 mi
10:55 AM90 °FSunny.3 mph63%29.99 "Hg10 mi
10:15 AM88 °FSunny.10 mph62%29.99 "Hg10 mi
9:55 AM88 °FSunny.7 mph62%29.99 "Hg10 mi
9:35 AM86 °FSunny.10 mph66%29.98 "Hg10 mi
9:15 AM86 °FSunny.9 mph66%29.99 "Hg10 mi
8:55 AM86 °FSunny.9 mph62%29.99 "Hg10 mi
8:35 AM84 °FSunny.13 mph66%29.99 "Hg10 mi
8:15 AM82 °FSunny.14 mph70%29.98 "Hg10 mi
7:55 AM82 °FSunny.8 mph70%29.98 "Hg10 mi
7:15 AM79 °FSunny.No wind79%29.98 "Hg10 mi
6:55 AM79 °FClear.8 mph79%29.98 "Hg10 mi
6:35 AM79 °FClear.No wind79%29.97 "Hg10 mi
6:15 AM79 °FClear.6 mph79%29.97 "Hg10 mi
5:55 AM77 °FClear.5 mph83%29.96 "Hg10 mi
5:35 AM77 °FClear.No wind83%29.96 "Hg10 mi
5:15 AM77 °FClear.No wind89%29.96 "Hg10 mi
4:55 AM77 °FClear.No wind89%29.96 "Hg10 mi
4:35 AM77 °FClear.No wind89%29.96 "Hg10 mi
4:15 AM77 °FClear.No wind89%29.96 "Hg10 mi
3:55 AM79 °FClear.No wind84%29.95 "Hg10 mi
3:15 AM79 °FClear.7 mph84%29.95 "Hg10 mi
2:55 AM77 °FClear.8 mph89%29.95 "Hg10 mi
2:35 AM79 °FClear.5 mph84%29.95 "Hg10 mi
2:15 AM79 °FClear.6 mph84%29.95 "Hg10 mi
1:55 AM79 °FClear.8 mph84%29.95 "Hg10 mi
1:35 AM79 °FClear.6 mph89%29.95 "Hg10 mi
1:15 AM79 °FClear.7 mph89%29.95 "Hg10 mi
Weather by CustomWeather, © 2016

See weather overviewHow to use our weather pages